Location: Houhaj�rvi
(61.2833°N, 23.0000°E)
Time: 09:34:57
(UTC+00:00)

Cosmos 2322 Rocket - Pass Details

Date: 27 February 2020
Orbit: 833 x 851 km, 71.0° (Epoch: 09 April)

Event Time Altitude Azimuth Distance (km) Brightness Sun altitude
Exits shadow 23:31:32 37° 23° (NNE) 1,313 3.5 -36.1°
Drops below altitude 10° 23:35:05 10° 42° (NE) 2,490 5.3 -36.0°
Sets 23:37:35 0° 47° (NE) 3,427 6.1 -35.9°
